Location: Amanico Ergina Village
(37.7824°N, 122.4366°W)
Time: 14:17:18
(UTC+00:00)

Daily predictions for brighter satellites

Satellite Brightness Start Highest point End
(mag) Time Altitude Azimuth Time Altitude Azimuth Time Altitude Azimuth
Cosmos 44 Rocket 4.5 12:10:28 36° SSE 12:10:28 36° SSE 12:13:30 10° SSE
ERS-2 4.4 12:06:42 10° SE 12:09:39 24° ENE 12:10:47 20° NE
Nadezhda 4 Rocket 4.0 12:03:52 10° S 12:09:56 74° E 12:16:04 10° N
CZ-4B R/B 4.3 12:08:02 10° ESE 12:10:23 17° ENE 12:12:44 10° NNE
Cosmos 2082 Rocket 2.4 12:09:55 54° SSE 12:11:03 68° ESE 12:16:38 10° NNE
Cosmos 2369 4.4 12:08:19 22° N 12:11:50 51° ENE 12:17:17 10° SE
Lacrosse 5 rocket 4.0 12:18:45 10° NNE 12:18:45 10° NNE 12:18:49 10° NNE
DELTA 2 R/B (1) 4.4 12:19:26 39° S 12:19:26 39° S 12:23:42 10° SE
Cosmos 2180 Rocket 4.3 12:13:43 10° NNW 12:19:54 70° W 12:26:00 10° S
ALOS 3.2 12:22:53 10° NNE 12:27:26 48° E 12:31:55 10° S
BREEZE-M DEB (TANK) 4.4 12:28:32 44° NW 12:30:41 85° NE 12:50:03 10° SE
Cosmos 1697 Rocket 2.6 12:31:55 30° NNW 12:34:51 86° WSW 12:40:31 10° SSE
Abrixas rocket 4.3 12:38:21 20° NE 12:38:21 20° NE 12:39:57 10° E
ISS -1.0 12:41:10 12° N 12:41:10 12° N 12:41:36 10° NNE
COSMOS 2406 4.4 12:41:49 25° NNW 12:41:49 25° NNW 12:45:06 10° N
FENGYUN 3A 3.8 12:36:46 10° NNE 12:42:13 73° ESE 12:47:38 10° S
ATLAS CENTAUR R/B 3.6 12:42:16 10° SSE 12:45:29 23° ESE 12:48:34 10° ENE
ATLAS 3B R/B 2.7 12:44:55 40° W 12:46:45 51° NW 12:53:12 10° NNE
ADEOS 3.5 12:43:35 10° NNE 12:48:50 88° ESE 12:54:03 10° SSW
ADEOS Rocket 2.9 12:45:00 10° S 12:50:17 49° W 12:55:39 10° NNW
Cosmos 1400 Rocket 3.4 12:46:28 10° N 12:50:19 54° E 12:54:07 10° SSE
Cosmos 1300 2.8 12:46:44 10° N 12:50:33 75° E 12:54:21 10° SSE
Meteor 2-5 Rocket 3.7 12:46:04 10° SSW 12:51:39 61° W 12:57:25 10° N
Cosmos 1980 Rocket 2.3 12:52:40 10° NNW 12:58:17 77° ENE 13:03:52 10° SSE
SL-14 R/B 4.1 13:02:57 32° NW 13:02:57 32° NW 13:05:41 10° N
CZ-4B R/B 3.8 12:58:11 10° NNE 13:02:19 88° ESE 13:06:13 10° SSW
Cosmos 2228 3.0 12:59:24 10° NNW 13:03:41 56° W 13:07:58 10° S
Cosmos 1726 Rocket 3.4 12:59:24 10° N 13:03:52 79° W 13:08:18 10° S
Cosmos 1992 Rocket 3.9 12:59:35 10° NNW 13:04:46 68° WSW 13:09:56 10° S
Cosmos 2026 Rocket 4.0 13:00:17 10° S 13:06:39 85° W 13:13:04 10° N
Cosmos 2195 Rocket 4.4 13:05:51 10° SSW 13:12:00 65° W 13:18:08 10° N
CZ-2C R/B 3.7 13:13:20 10° NNW 13:16:07 20° NW 13:16:07 20° NW
Meteor PRIRODA 4.2 13:13:55 10° NNE 13:17:32 58° E 13:21:09 10° S
Meteor 2-10 Rocket 4.4 13:13:17 10° N 13:18:11 51° ENE 13:23:12 10° SSE
Cosmos 614 Rocket 3.8 13:13:18 10° SSW 13:18:26 70° WNW 13:23:33 10° NNE
Cosmos 1606 Rocket 4.0 13:16:02 10° NNW 13:20:11 39° W 13:24:20 10° SSW
Cosmos 2360 4.5 13:15:33 10° NW 13:20:53 44° WSW 13:26:14 10° S
Cosmos 1484 Rocket 3.3 13:18:09 10° N 13:21:39 35° WNW 13:25:05 10° SW
Cosmos 1315 Rocket 4.1 13:19:55 10° N 13:23:53 45° ENE 13:27:51 10° SSE
Cosmos 1689 Rocket 2.4 13:22:17 10° SSE 13:25:11 66° ENE 13:28:05 10° N
H-2A R/B 4.3 13:23:35 10° SW 13:23:42 10° SW 13:23:42 10° SW
COSMO-SKYMED 1 2.6 13:23:22 10° SSE 13:27:42 83° ENE 13:32:03 10° N
Cosmos 1833 Rocket 4.2 13:29:06 16° WNW 13:29:43 16° NW 13:33:06 10° NNW
Cosmos 2322 Rocket 3.9 13:26:01 10° N 13:31:06 32° ENE 13:36:06 10° ESE
Cosmos 2278 3.8 13:25:57 10° NNW 13:31:27 53° WSW 13:36:54 10° S
Uosat 12 SS-18 rocket 4.3 13:26:40 10° SSW 13:31:38 77° ESE 13:36:01 10° NE
METEOR-M 4.3 13:27:58 10° N 13:33:04 47° WNW 13:38:08 10° SW
SAR-Lupe-4 3.8 13:32:23 10° S 13:35:49 46° W 13:39:17 10° NNW
SJ-12 4.0 13:32:14 10° N 13:36:16 55° WNW 13:40:15 10° SSW
Cosmos 1455 3.2 13:34:12 10° N 13:37:59 49° E 13:41:43 10° SSE
SL-19 R/B 4.5 13:37:43 10° N 13:40:12 27° WNW 13:42:48 10° SW
H-2A R/B 3.9 13:37:08 10° NNE 13:41:16 43° E 13:45:12 10° S
Cosmos 1023 Rocket 4.4 13:36:43 10° SSW 13:41:48 81° WNW 13:46:54 10° NNE
CZ-4B R/B 2.7 13:39:41 10° SSW 13:42:26 22° W 13:45:12 10° NW
ERS-2 3.6 13:40:34 10° SW 13:43:08 18° W 13:45:22 11° NW
Meteor 1-31 Rocket 3.8 13:43:34 10° NNW 13:46:50 25° WNW 13:50:04 10° SW
Meteor 2-19 Rocket 4.4 13:41:39 10° SSW 13:47:43 73° W 13:53:47 10° N
CREW DRAGON DEMO-1 DEB 4.2 13:48:43 10° NW 13:51:30 33° NNE 13:54:17 10° E
Cosmos 2292 Rocket 2.9 13:48:54 10° S 13:51:57 88° ESE 13:55:37 10° N
Cosmos 1703 3.7 13:48:30 10° S 13:52:20 68° E 13:56:12 10° NNE
Cosmos 1190 Rocket 4.0 13:48:51 10° SSW 13:54:03 65° WNW 13:59:15 10° NNE
Cosmos 2082 Rocket 3.6 13:52:04 10° W 13:55:40 17° NW 13:59:16 10° NNW
Cosmos 2058 Rocket 3.8 13:53:47 10° NNW 13:57:44 31° W 14:01:38 10° SSW
PSLV R/B 4.3 13:57:29 10° S 14:01:30 45° W 14:05:34 10° NNW
ALOS 3.8 14:01:35 10° NNW 14:04:25 16° WNW 14:07:14 10° WSW
PSLV R/B 3.9 14:02:45 10° N 14:06:51 68° WNW 14:10:54 10° SSW
CZ-4B R/B 3.8 14:03:17 10° NNW 14:06:53 29° WNW 14:10:36 10° SW
Cosmos 2098 Rocket 3.8 14:01:53 10° SSW 14:07:52 52° W 14:12:42 10° N
SL-16 R/B 2.4 14:02:41 10° NNW 14:08:23 83° ENE 14:14:03 10° SSE
CZ-4B DEB 4.3 14:05:02 10° NNE 14:10:33 89° WNW 14:16:00 10° SSW
